Meteo Giornale » Osservazioni meteo Francia » Bale-Mulhouse

ore: 18:30 - Osservazioni Meteo Bale-Mulhouse
Lat. 47° 36' N Lon. 7° 31' E Alt. 270 metri s.l.m.

poco_nuvoloso Europe/Paris

23 °C

Poco Nuvoloso

Temp. 24 Ore

15 °C

24 °C

Nord/Nord-Est

7.4 Km/h

Dew point 13 °C

Umidità 53 %

Visibilità  10 Km

Il sole sorge alle ore 05:29

Il sole tramonta alle ore 21:31

Data e Ora Cielo e Fenomeni T °C DP °C Um. % Pres. hPa Vis. km Vento km/h
Oggi h: 18:30 poco_nuvoloso Poco Nuvoloso 23 13 53 1021 10 N/NE 7.4
Oggi h: 18:00 poco_nuvoloso Poco Nuvoloso 24 13 50 1021 10 N 7.4
Oggi h: 17:30 poco_nuvoloso Poco Nuvoloso 23 14 56 1021 10 N 5.5
Oggi h: 17:00 poco_nuvoloso Poco Nuvoloso 23 14 56 1021 10 N/NE 9.3
Oggi h: 16:30 nuvoloso Nuvoloso 23 14 56 1021 10 O/NO 7.4
Oggi h: 16:00 nuvoloso Nuvoloso 23 13 53 1022 10 O/NO 7.4
Oggi h: 15:35 nuvoloso Nuvoloso 22 14 60 1022 10 O 9.3
Oggi h: 15:00 nuvoloso Nuvoloso 23 13 53 1022 10 N 3.7
Oggi h: 14:30 nuvoloso Nuvoloso 22 14 60 1022 10 N 7.4
Oggi h: 14:00 nuvoloso Nuvoloso 22 13 56 1022 10 N 5.5
Oggi h: 13:30 nuvoloso Nuvoloso 21 14 64 1023 10 S 7.4
Oggi h: 13:00 nuvoloso Nuvoloso 20 13 64 1023 10 S/SE 7.4
Oggi h: 12:30 nuvoloso Nuvoloso 19 14 72 1023 10 N 5.5
Oggi h: 12:00 molto_nuvoloso Molto Nuvoloso 19 14 72 1023 10 N 5.5
Oggi h: 11:30 molto_nuvoloso Molto Nuvoloso 18 13 72 1023 10 N 3.7
Oggi h: 11:00 molto_nuvoloso Molto Nuvoloso 17 13 77 1023 10 N 5.5
Oggi h: 10:23 nuvoloso Nuvoloso 17 13 77 1023 10 N 3.7
Oggi h: 10:00 nuvoloso Nuvoloso 16 13 82 1023 10 N 3.7
Oggi h: 09:30 nuvoloso_piovaschi Debole Rovescio di Pioggia 16 14 87 1023 10 N 5.5
Oggi h: 09:00 nuvoloso_piovaschi Debole Rovescio di Pioggia 15 14 93 1023 10 O/SO 9.3
Oggi h: 08:30 nuvoloso Rovescio nelle Vicinanze 16 14 87 1022 10 N 3.7
Oggi h: 08:00 nuvoloso Rovescio nelle Vicinanze 15 14 93 1022 10 N 5.5
Oggi h: 07:30 nuvoloso_piovaschi Debole Rovescio di Pioggia 15 14 93 1022 8 O/NO 7.4
Oggi h: 07:00 molto_nuvoloso Rovescio nelle Vicinanze 15 13 87 1022 10 O/NO 7.4
Oggi h: 06:30 molto_nuvoloso Molto Nuvoloso 15 13 87 1021 10 N 3.7
Oggi h: 06:00 molto_nuvoloso Molto Nuvoloso 15 13 87 1021 10 N 3.7
Oggi h: 05:30 molto_nuvoloso Molto Nuvoloso 15 13 87 1021 10 N 3.7
Oggi h: 05:00 molto_nuvoloso Molto Nuvoloso 15 13 87 1021 10 N 1.8
Oggi h: 04:30 molto_nuvoloso Molto Nuvoloso 15 13 87 1021 10 N 5.5
Oggi h: 04:00 molto_nuvoloso Molto Nuvoloso 15 13 87 1021 10 N 1.8
Oggi h: 03:30 coperto Coperto 15 13 87 1021 10 N 0
Oggi h: 03:00 coperto Coperto 15 13 87 1021 10 N 3.7
Oggi h: 02:30 coperto Coperto 15 13 87 1021 10 O/SO 11.1
Oggi h: 02:00 molto_nuvoloso Molto Nuvoloso 15 13 87 1021 10 O/SO 13
Oggi h: 01:30 molto_nuvoloso Molto Nuvoloso 15 14 93 1020 10 O 13
Oggi h: 01:00 coperto Coperto 15 14 93 1021 10 O/SO 13
Oggi h: 00:30 coperto Coperto 16 14 87 1020 10 O 7.4
Oggi h: 00:00 molto_nuvoloso Molto Nuvoloso 16 14 87 1020 10 N 5.5
Ieri h: 23:30 molto_nuvoloso Molto Nuvoloso 16 14 87 1020 10 N 3.7
Ieri h: 23:00 coperto_pioggia Pioggia Debole 16 14 87 1020 10 SO 9.3
Ieri h: 22:30 coperto_pioggia Pioggia Debole 16 15 93 1019 10 SO 9.3
Ieri h: 22:00 coperto_pioggia Pioggia Debole 16 15 93 1019 8 S/SE 9.3
Ieri h: 21:30 coperto_pioggia Pioggia Debole 17 15 88 1018 10 N 5.5
Ieri h: 21:00 coperto_pioggia Pioggia 17 15 88 1018 8 SO 16.7
Ieri h: 20:30 coperto_pioggia Pioggia Debole 18 15 82 1017 8 SO 22.2
Ieri h: 20:00 coperto_pioggia Pioggia Debole 19 16 82 1017 8 O/SO 16.7